Theta_e
328 325 325 322 321 321 318 317 303 309 308 300 300 302 300 306 306 307 307 310 310 314 315 315 321 318 314 313 314 316 315 313 315 308 309 326 334 338 339 339 340 339 340 340 341 343 346 347 347 347 346 345 345 344 343 341 341 342 343 343 343 341 339 338 340 341 341 340 341 341 341 342 339 340 340 341 342 343 342 342 343 343 342 343 345 345 345 345 345 346 346 346 345 344 344 343 342
323 324 324 325 321 319 311 312 306 303 303 299 300 301 302 305 306 306 307 310 311 313 314 320 321 318 317 317 318 317 318 319 319 321 326 332 336 337 339 340 338 337 340 340 341 342 346 349 347 347 346 345 345 344 343 342 340 340 342 342 341 341 341 340 340 340 340 339 340 341 341 341 341 341 341 342 343 344 343 343 343 343 344 344 344 344 344 345 345 345 345 345 344 343 343 343 342
324 323 322 322 320 315 312 312 301 301 299 296 299 301 303 304 306 308 310 310 312 314 317 320 319 316 315 315 314 314 316 323 323 327 328 334 330 333 338 341 340 339 340 340 340 341 345 346 345 347 346 345 344 343 342 340 339 339 343 343 343 344 343 341 340 340 340 340 341 341 341 341 341 341 341 342 343 342 341 343 344 344 344 344 343 344 344 344 344 345 344 344 344 343 342 342 341
328 326 319 320 313 316 306 307 304 301 298 298 299 302 303 305 307 310 310 312 315 316 318 316 315 319 315 311 314 316 318 320 327 329 327 330 333 336 338 339 341 340 340 341 341 343 344 345 345 346 347 345 344 343 342 341 340 341 340 342 344 343 344 343 342 341 340 341 341 341 343 344 343 342 341 341 341 341 344 343 343 343 343 342 343 343 343 343 343 344 344 344 343 342 342 342 341
327 325 322 319 315 307 308 305 303 302 298 300 298 302 303 305 308 309 310 315 313 314 316 317 317 319 320 317 317 313 320 326 327 332 330 334 338 337 337 339 339 339 338 340 341 341 345 343 345 347 347 345 345 344 344 342 341 340 339 340 342 342 343 344 344 344 343 344 344 343 342 342 343 343 342 342 342 342 342 342 342 342 343 343 343 343 343 343 343 344 343 343 343 342 341 341 340
324 321 326 322 310 313 308 303 301 300 302 303 301 302 303 306 309 309 312 314 313 313 312 317 315 316 315 321 321 316 326 319 328 330 332 334 337 337 338 340 337 336 339 340 341 341 345 343 344 346 346 346 345 344 344 341 341 340 339 338 339 341 343 344 344 344 344 345 344 344 343 343 343 343 342 342 341 342 343 343 343 343 343 343 343 343 343 343 343 342 343 342 342 341 340 340 340
317 316 318 316 312 313 303 300 300 301 303 304 303 303 304 306 310 312 311 311 313 310 309 316 315 317 312 319 321 326 329 329 329 331 336 338 339 338 338 337 337 336 339 340 341 342 346 342 346 347 347 346 346 345 343 342 341 340 340 340 339 342 342 342 344 344 344 344 344 343 342 341 341 341 341 342 342 343 343 342 342 341 342 342 341 341 342 343 342 342 342 341 341 339 339 338 338
322 316 314 309 306 308 300 301 301 303 302 303 304 303 304 306 310 312 310 310 308 309 310 314 317 313 315 320 317 327 329 330 332 337 338 338 339 337 338 337 336 335 338 340 341 342 345 341 345 346 346 346 346 345 343 343 341 341 341 340 338 340 342 341 342 344 343 343 342 342 341 341 341 342 342 342 341 341 341 341 341 341 341 340 341 341 340 341 341 341 341 341 339 338 337 337 336
318 314 312 312 304 305 301 299 301 302 302 302 304 304 307 306 310 312 310 310 309 309 312 315 315 308 315 315 318 325 328 332 333 336 338 338 337 338 337 336 335 335 338 338 340 344 345 340 343 345 345 346 346 345 344 343 342 341 340 340 338 339 341 340 340 343 343 343 342 341 341 341 341 341 340 341 340 340 340 340 340 341 341 341 341 341 340 341 340 341 341 340 338 337 336 335 335
315 314 308 308 307 300 300 300 300 302 302 304 304 304 304 305 308 313 311 308 310 310 314 317 312 308 316 313 318 324 328 333 334 335 337 337 337 337 335 337 337 336 337 338 338 341 343 344 340 343 344 345 345 346 344 343 343 342 340 340 340 339 338 338 339 342 342 342 341 341 340 340 340 339 339 339 339 340 340 340 340 340 339 340 339 339 340 340 340 340 339 339 337 336 335 334 333
307 312 311 306 303 300 298 299 300 303 302 303 303 305 305 306 310 310 312 310 310 311 313 314 311 310 315 314 321 325 330 333 333 331 336 336 337 336 334 337 337 337 336 338 338 339 343 344 341 339 341 343 344 345 345 344 344 342 340 340 340 338 338 341 342 342 341 341 340 340 340 339 339 339 339 339 339 339 339 340 339 339 339 339 339 339 339 339 339 339 339 338 337 335 334 334 333
308 306 310 303 302 302 301 300 301 303 303 303 303 306 304 306 311 309 308 307 308 311 312 314 311 317 312 313 317 326 330 332 334 335 336 337 336 336 335 337 338 337 338 338 339 338 342 344 344 341 337 340 341 342 343 343 344 343 341 340 340 339 338 341 342 341 340 340 340 340 340 339 339 339 340 339 339 340 339 339 339 339 339 339 338 338 338 338 338 338 338 337 336 334 334 333 333
309 309 305 304 302 302 301 300 301 301 303 302 305 305 306 308 309 311 310 310 310 310 311 316 317 317 307 311 321 326 328 331 334 337 337 336 336 336 336 336 336 337 337 338 337 337 341 341 341 343 340 335 336 338 338 340 342 342 341 340 340 340 340 340 341 341 340 340 340 340 339 339 340 340 340 340 340 340 338 339 339 339 338 338 338 338 337 337 337 338 338 337 336 335 334 333 333
310 311 305 303 301 301 301 301 301 300 301 303 304 305 307 307 310 311 311 308 309 309 312 317 317 315 314 314 317 323 327 333 335 337 337 337 337 335 335 336 336 335 337 336 335 335 338 340 339 342 344 344 345 339 334 337 339 341 340 339 339 339 340 341 342 341 341 340 340 339 340 340 339 339 338 338 338 338 338 338 339 338 338 337 337 337 337 337 337 338 338 337 336 335 333 333 332
311 309 306 304 301 301 301 300 300 300 300 303 302 305 305 308 307 309 311 309 310 311 313 318 321 311 306 308 312 321 329 333 335 336 336 337 335 334 335 335 334 335 334 335 335 335 335 337 338 340 341 341 342 343 344 343 334 336 337 337 337 338 339 338 338 338 337 337 337 336 336 334 334 334 334 334 335 335 334 331 333 337 337 337 337 336 336 335 335 336 336 336 335 334 333 332 331
314 310 307 303 300 300 302 301 299 300 300 302 302 302 306 307 305 307 309 309 310 311 313 313 317 311 314 311 316 326 332 333 335 336 335 334 334 333 334 333 333 333 334 334 334 335 335 336 337 337 339 339 340 342 343 344 334 331 334 335 335 335 334 334 334 333 331 330 330 330 330 334 332 334 328 334 329 331 330 331 331 337 336 336 336 336 335 334 334 334 334 333 332 332 331 330 329
312 313 304 303 300 299 302 301 300 298 302 302 301 305 305 306 304 305 305 309 309 309 311 316 317 319 316 315 322 325 333 334 334 335 333 331 331 330 331 332 331 332 332 333 333 333 335 335 335 336 338 338 339 341 341 343 341 331 331 330 330 330 331 331 329 325 323 323 326 325 328 337 337 336 336 336 329 337 323 326 331 335 336 335 335 335 335 334 334 333 332 331 330 328 326 324 325
311 308 306 302 304 300 303 302 302 301 301 301 301 304 306 305 305 306 309 309 312 311 311 316 315 318 322 323 325 328 333 333 333 331 329 329 329 328 327 329 330 329 330 330 333 334 333 334 334 335 337 338 339 340 340 341 342 337 340 338 339 334 329 327 334 338 335 338 325 334 337 335 334 335 335 335 336 336 332 323 327 332 334 334 334 334 335 333 333 332 332 331 329 327 326 331 328
308 305 306 306 303 304 305 303 303 302 301 302 301 300 305 306 306 307 306 306 308 308 310 314 316 319 322 323 325 330 331 331 331 330 328 328 328 327 327 328 328 329 329 330 331 332 333 333 333 333 334 336 338 338 339 339 340 339 339 339 338 333 335 336 336 337 337 336 337 336 334 335 335 335 335 333 333 320 327 322 325 328 329 329 330 331 332 331 330 329 328 326 326 326 332 332 332
304 305 305 306 306 304 305 304 303 303 301 301 302 301 302 306 306 308 305 306 307 306 308 310 312 315 319 323 325 328 330 329 330 329 329 329 329 328 327 327 327 329 329 330 331 333 333 333 333 334 334 335 336 337 338 339 338 337 337 337 337 336 337 336 337 336 334 335 335 335 334 335 335 334 325 324 328 334 329 319 319 320 321 322 323 327 326 327 325 324 324 325 328 329 332 331 331
301 301 302 303 306 304 301 303 303 301 301 301 301 300 300 303 305 306 306 305 305 307 310 310 310 314 321 323 325 327 328 328 329 329 329 329 330 330 329 329 328 329 331 331 331 331 332 332 332 333 333 334 334 334 336 336 337 336 335 336 336 335 334 335 335 335 335 333 334 333 334 334 334 333 334 333 333 332 332 332 332 332 333 331 323 332 332 330 331 333 332 330 332 332 331 331 331
302 302 304 305 305 305 303 302 300 301 299 300 299 300 301 303 303 304 306 304 306 309 311 312 312 316 322 322 324 326 326 327 328 328 328 329 329 329 330 331 331 331 331 329 330 331 332 332 333 333 332 332 334 334 334 335 336 335 334 335 335 334 335 334 335 334 334 334 332 333 333 333 332 332 332 332 331 331 331 330 330 330 331 330 330 331 331 332 332 332 332 332 331 331 331 331 330
303 303 303 305 305 304 302 301 299 300 301 300 300 301 302 302 303 305 306 306 306 306 307 311 313 318 323 325 325 325 325 326 327 327 328 328 329 330 329 330 330 329 330 330 331 332 332 333 332 333 331 332 332 333 332 333 333 334 334 334 333 332 333 333 333 334 334 334 333 332 331 330 330 331 330 330 330 331 330 330 329 329 329 329 329 330 331 330 331 331 331 331 331 330 330 330 330
307 305 303 304 305 303 301 302 298 300 299 300 300 300 300 301 300 303 303 307 308 306 308 305 309 322 325 324 325 325 325 326 327 328 329 330 330 330 331 330 330 332 332 331 331 332 332 332 332 332 331 331 331 332 331 331 332 332 334 333 333 331 331 332 333 333 334 332 333 332 331 331 329 328 329 329 329 330 329 329 330 328 328 327 327 329 330 329 329 330 331 331 330 329 329 329 329
306 306 307 305 303 305 305 302 301 299 299 300 298 299 301 301 301 299 301 306 308 306 312 312 314 321 323 324 325 326 326 327 328 328 330 331 332 332 332 332 332 332 332 331 331 331 332 333 332 331 331 331 331 331 330 331 331 331 332 332 332 329 331 333 333 334 332 332 332 332 332 330 329 329 328 328 329 328 329 329 328 328 328 327 328 328 329 329 329 330 330 330 330 329 328 328 328
302 303 303 302 303 302 302 301 300 298 300 299 300 301 301 300 299 298 303 305 308 314 317 318 320 319 322 323 325 325 326 326 327 327 328 330 331 330 330 331 332 331 333 333 332 332 333 333 332 331 331 331 331 331 331 330 331 331 331 331 332 331 332 332 333 332 332 332 332 332 332 331 330 329 329 328 327 327 327 327 327 328 327 328 327 328 328 328 328 328 329 329 329 328 328 328 326
304 302 303 302 302 301 302 301 301 298 301 300 300 300 300 299 299 300 304 304 306 310 314 319 319 319 321 323 324 325 326 326 326 328 328 329 329 329 329 331 332 332 333 332 333 333 333 333 333 332 332 332 332 330 331 331 331 330 330 331 331 331 331 331 331 331 332 332 332 333 332 332 332 331 330 328 327 327 327 327 326 327 327 327 328 328 327 328 328 328 329 328 327 327 326 327 326
303 304 302 301 302 302 301 300 301 301 302 300 301 300 299 299 299 300 305 302 305 307 314 316 317 317 322 323 323 325 326 327 328 328 326 326 326 328 328 329 330 332 332 333 334 334 333 333 333 333 333 332 331 331 331 330 330 330 331 331 330 330 331 331 331 331 331 331 333 332 332 332 332 332 331 330 329 328 328 327 327 326 326 327 327 327 326 328 328 329 329 329 329 327 327 327 327
300 300 301 299 300 300 302 301 303 302 302 299 301 299 298 297 297 303 303 304 304 306 310 314 316 318 321 323 323 324 325 327 328 327 327 328 330 330 329 331 331 330 332 333 334 335 333 333 333 333 333 333 331 331 331 331 331 331 330 330 330 330 330 330 330 330 330 331 332 332 332 333 332 332 332 331 330 329 329 327 327 327 328 327 326 326 326 328 328 328 328 328 328 327 327 327 328
301 300 301 300 302 301 305 303 301 301 303 300 301 297 302 300 301 303 302 303 305 305 306 310 314 317 319 322 323 323 324 325 326 327 328 329 330 330 330 331 332 331 331 332 333 333 333 334 333 333 333 333 332 332 332 331 331 332 331 331 331 330 329 329 329 329 330 330 331 331 332 333 331 332 332 332 331 330 330 329 328 328 328 328 327 325 325 328 328 328 328 327 324 326 326 326 325
301 299 300 300 299 302 300 301 300 299 300 299 301 297 302 302 303 305 305 305 304 303 305 308 312 315 317 319 321 322 324 325 325 326 328 329 330 331 330 331 331 332 331 332 332 332 333 333 332 332 332 333 333 332 331 332 332 332 331 332 331 330 330 330 330 331 330 329 329 330 331 332 332 332 333 332 331 331 330 330 329 330 331 329 328 328 328 329 329 328 327 326 327 326 326 326 325
299 298 297 297 299 303 299 299 299 300 297 300 300 296 300 304 304 302 304 305 304 303 304 306 309 313 315 317 319 321 322 325 326 326 328 328 329 330 330 330 331 331 331 331 332 333 333 333 332 331 332 332 333 332 332 332 332 333 332 328 332 332 330 330 330 331 331 331 331 332 332 332 332 332 332 332 331 331 330 329 330 331 332 330 329 329 329 328 328 328 328 328 326 326 326 326 326
297 299 297 297 298 302 300 299 300 300 299 298 300 299 299 300 304 301 298 301 303 303 303 304 306 310 314 315 317 319 321 322 324 326 327 327 328 330 330 330 331 331 332 332 331 332 332 332 331 331 330 331 332 332 332 332 333 332 332 332 332 332 331 330 330 331 332 331 332 332 332 331 332 332 332 332 331 331 330 330 331 333 332 330 329 329 328 329 329 328 328 327 327 325 325 325 325
295 298 297 299 296 299 298 299 298 300 299 297 298 297 300 303 303 300 298 299 301 301 303 304 304 306 310 314 316 317 319 320 321 323 325 327 328 329 330 328 331 331 332 332 333 331 331 332 332 331 331 331 332 332 332 332 332 332 332 332 331 331 331 331 331 330 330 331 332 332 333 332 331 332 332 331 330 331 331 331 332 332 330 329 329 328 328 329 329 328 326 326 326 325 324 324 324
293 295 297 297 295 295 298 299 297 297 297 297 298 296 298 301 304 305 302 300 300 301 302 303 304 304 305 310 312 314 316 318 320 323 325 326 327 329 330 331 331 332 332 332 332 331 331 331 331 330 330 331 331 332 332 332 332 332 332 332 331 331 331 331 331 329 329 330 333 334 333 332 330 332 331 331 330 330 330 331 331 329 328 328 327 327 326 325 325 326 326 325 323 325 324 324 323
298 300 300 301 297 297 297 300 297 297 296 296 297 295 297 298 300 302 304 301 301 302 303 302 302 304 305 305 309 312 315 316 319 322 324 326 327 328 329 330 330 331 331 331 330 331 331 331 331 331 330 330 331 331 331 330 330 329 329 330 330 330 331 330 331 330 330 330 331 333 334 333 332 331 331 331 330 330 329 329 330 329 326 326 326 326 325 325 324 325 325 325 324 324 324 324 323
302 302 301 300 300 301 297 296 296 296 296 297 298 298 298 299 301 303 304 302 300 301 301 301 302 303 304 304 305 308 311 313 319 321 322 324 326 327 328 329 329 330 330 330 329 330 330 330 330 329 331 331 330 330 330 330 328 328 329 329 329 330 331 331 330 331 331 330 331 331 333 334 334 332 331 331 330 327 330 330 329 327 326 326 327 327 328 327 327 327 326 325 323 323 323 324 324
300 298 297 297 296 297 300 298 295 297 295 298 297 295 297 298 300 301 302 302 300 300 301 302 302 303 304 305 305 306 307 310 311 311 315 320 322 324 326 327 326 327 328 328 328 329 330 331 330 330 331 331 330 331 331 330 331 330 329 329 330 331 332 329 329 330 331 331 331 331 331 332 333 332 331 331 330 330 329 329 328 327 326 326 327 328 329 324 328 327 326 324 325 323 323 324 325
298 298 297 296 296 298 297 296 296 295 295 295 298 295 297 299 301 301 301 301 302 302 302 302 303 304 303 303 303 304 305 305 306 307 310 315 320 322 324 325 326 327 328 328 329 330 330 330 330 331 332 331 331 332 332 331 332 333 333 332 332 331 334 333 332 332 332 331 331 331 331 331 332 331 332 330 329 330 330 329 329 328 326 326 325 325 327 328 327 325 325 323 323 324 323 323 323
297 297 295 294 299 295 296 297 295 295 295 295 295 293 295 298 300 299 301 301 302 303 303 302 303 303 303 304 304 304 304 305 305 306 306 309 315 319 322 323 325 326 327 327 328 329 330 329 330 331 331 332 332 332 330 333 333 334 334 334 334 333 331 333 333 333 332 331 330 331 331 332 332 331 331 331 330 330 330 329 329 328 327 326 327 327 326 325 325 326 326 325 324 321 320 319 322
297 298 297 297 294 295 299 296 294 294 294 293 294 293 294 298 298 300 303 302 301 301 302 302 302 303 304 306 308 307 304 305 307 307 306 306 309 314 319 322 324 325 326 327 328 328 328 329 330 331 331 332 332 331 331 333 333 332 333 333 334 333 333 332 331 330 331 330 330 330 330 331 331 330 331 330 329 330 330 330 329 328 328 327 327 327 327 326 327 327 325 324 324 321 320 321 321
295 297 298 299 298 296 294 294 295 297 296 294 293 291 293 298 299 299 303 302 299 301 301 301 302 302 301 300 302 304 307 307 306 307 308 308 307 309 315 320 322 323 325 326 328 328 329 329 330 331 331 332 332 332 332 332 331 330 329 328 326 327 326 326 326 327 329 329 329 331 331 331 331 331 331 331 329 327 329 329 330 329 329 328 328 328 327 327 326 326 326 326 324 325 322 320 320
294 295 297 298 298 298 295 293 295 293 290 293 292 290 289 296 295 297 298 298 299 301 300 300 301 302 302 301 302 302 303 304 306 306 307 307 308 308 310 314 318 320 323 326 328 328 329 329 330 331 331 332 333 333 333 330 330 330 329 329 328 327 326 327 329 330 330 331 332 331 331 331 331 331 331 331 330 329 328 329 330 330 330 329 328 326 325 326 328 328 328 326 325 325 324 319 319
294 300 297 297 296 295 295 296 295 296 293 295 291 292 286 286 292 297 298 297 297 298 299 300 301 301 301 301 302 303 305 304 306 306 306 306 307 307 306 309 314 318 321 324 326 327 327 328 329 330 330 330 332 332 332 331 329 330 329 328 328 328 327 327 329 330 331 331 331 331 331 330 331 332 331 331 331 330 328 329 330 330 331 331 327 326 327 328 328 328 327 327 326 324 323 321 320
296 295 297 295 296 296 295 295 292 292 290 289 291 292 287 288 293 297 297 295 296 297 299 300 301 302 302 302 302 303 305 306 306 307 307 307 306 307 307 308 311 315 319 322 324 325 327 328 328 329 329 330 330 331 331 330 329 329 329 328 327 327 328 328 329 330 330 331 330 331 331 331 331 331 332 331 331 331 328 328 329 328 328 327 326 326 327 328 326 327 326 324 323 323 323 324 322
292 295 298 297 297 295 295 293 293 291 289 286 291 292 287 289 294 294 295 295 296 298 300 301 302 303 303 303 303 303 304 306 307 306 307 308 308 308 308 307 308 309 313 317 320 323 325 327 327 327 328 329 329 330 330 330 329 328 329 328 327 327 327 328 329 328 329 329 328 329 330 330 329 329 330 331 331 331 330 329 328 328 328 327 324 325 326 326 327 328 326 323 322 322 323 322 322
295 296 294 294 294 292 292 293 291 289 285 287 292 291 291 285 293 295 293 293 296 299 300 302 303 304 304 305 305 306 304 304 307 308 306 305 307 307 307 306 306 307 310 312 315 319 322 324 325 325 327 328 329 329 329 329 329 328 327 328 328 327 327 327 326 326 327 328 327 328 329 329 329 329 330 330 331 331 331 329 328 328 328 327 324 325 325 325 326 326 324 322 322 322 322 322 321
296 294 292 291 289 290 289 287 290 284 284 288 292 291 291 284 290 296 299 299 297 299 299 301 301 302 303 304 304 303 303 304 304 304 304 304 304 303 303 303 304 305 306 307 311 315 318 322 323 324 325 326 328 328 328 328 328 327 327 328 328 328 328 327 325 325 326 326 327 327 329 329 328 329 329 329 329 330 330 329 329 329 328 328 326 326 326 326 325 324 323 322 321 321 321 320 320
295 293 292 288 283 285 281 284 279 282 284 285 286 288 287 287 294 296 296 299 300 299 300 301 302 302 303 304 305 306 305 303 302 302 303 304 303 303 302 301 303 304 304 305 308 312 316 319 321 322 323 325 327 328 327 327 327 326 326 326 328 328 328 328 327 326 326 326 327 327 328 327 328 326 327 327 328 329 329 329 328 328 328 327 327 326 326 325 325 324 324 323 322 321 320 320 319
291 289 289 287 281 280 280 281 283 284 285 285 287 289 285 293 295 298 297 299 301 300 300 301 302 302 303 304 306 300 302 300 300 302 304 306 306 306 305 304 303 303 303 304 307 310 313 316 318 320 321 324 326 326 326 326 326 326 327 327 327 327 327 328 327 326 327 327 327 327 328 328 327 327 327 327 329 330 329 329 328 327 328 329 328 327 327 326 325 323 323 321 321 321 320 319 319
290 295 294 290 287 283 280 283 280 283 286 283 286 286 286 287 292 295 297 298 297 297 297 298 299 299 300 301 300 299 299 300 303 302 303 304 305 305 306 305 304 303 303 303 304 307 311 313 315 318 319 322 324 325 325 325 325 326 326 327 327 327 326 327 328 327 328 327 327 327 328 328 328 328 328 329 330 330 329 329 329 328 328 328 328 328 326 324 322 321 319 319 320 320 317 316 316
294 296 297 292 289 293 286 285 286 284 284 282 282 285 292 293 296 297 299 298 298 298 297 297 297 298 299 298 299 300 300 301 303 303 303 302 303 304 305 306 305 304 303 303 303 306 309 312 315 317 318 321 323 323 324 324 325 326 326 326 326 327 326 327 327 327 328 328 328 327 328 328 329 329 330 330 331 330 329 328 328 327 328 327 326 326 324 322 320 319 318 317 316 316 315 315 314
290 291 287 292 295 291 284 282 282 283 284 283 288 286 290 295 296 298 298 299 298 298 297 296 297 299 299 299 301 302 303 303 304 303 303 304 305 305 306 306 306 305 304 303 304 305 307 310 313 315 317 320 322 322 323 324 325 325 325 326 326 326 326 326 326 327 327 328 328 328 328 328 329 329 329 330 330 330 328 327 326 326 326 326 324 324 323 321 320 319 317 315 313 313 313 312 311
292 286 292 294 298 295 289 284 281 282 282 284 285 284 287 288 287 297 297 297 299 300 300 298 298 298 298 301 303 304 305 305 304 302 302 303 304 306 307 306 306 306 306 305 304 305 306 309 311 313 316 317 320 322 322 323 323 324 324 325 325 326 326 326 326 326 327 327 327 327 328 327 327 328 329 329 329 327 326 321 325 324 324 323 322 322 321 319 317 316 316 314 312 312 310 310 310
293 292 300 292 285 285 288 286 277 278 277 281 283 284 285 289 291 294 293 293 295 297 299 300 298 298 299 300 302 303 303 303 301 300 301 302 303 304 306 305 304 304 304 305 305 305 305 306 310 312 314 316 318 321 322 322 323 323 324 324 324 325 326 326 326 327 327 326 325 326 326 326 326 327 326 325 323 323 323 321 322 320 319 319 319 318 317 316 315 313 311 310 310 309 308 307 305
292 297 295 298 293 290 286 285 286 286 282 281 283 281 285 291 292 295 295 294 295 296 298 299 300 301 301 301 303 304 305 303 302 302 302 303 303 304 304 303 302 303 302 302 303 304 303 305 306 308 312 315 317 318 319 319 321 322 323 324 325 325 325 326 325 326 325 324 324 325 325 325 325 325 324 323 321 320 318 317 317 316 315 314 314 314 314 312 311 308 306 305 305 305 305 303 299
286 290 290 291 290 293 293 289 286 286 284 283 284 282 287 294 295 295 297 298 299 299 299 300 302 302 303 302 302 304 302 301 300 300 300 301 302 302 301 301 302 302 301 301 301 302 303 303 304 306 308 310 312 314 316 317 319 320 320 321 322 323 324 325 325 325 325 324 324 323 324 324 324 322 321 319 318 317 316 314 313 312 313 311 310 309 310 308 306 304 303 303 302 301 298 296 296
290 290 290 291 288 285 284 283 289 283 285 281 282 281 290 296 293 296 297 299 300 301 301 301 302 301 301 303 303 300 299 299 298 298 299 300 301 303 302 301 301 301 301 301 301 302 302 303 304 305 307 309 310 312 313 315 317 318 319 320 321 322 322 322 322 323 322 322 323 322 322 320 319 319 319 317 315 314 312 311 310 309 308 308 307 306 305 304 303 302 299 299 298 298 296 293 293
Wind_Speed
5 3 1 1 2 2 3 3 4 3 3 2 3 2 5 0 1 4 4 6 6 4 2 3 8 9 1 2 4 4 4 2 6 4 4 4 4 11 8 8 10 10 9 8 9 9 9 11 12 10 12 13 12 12 13 13 12 11 11 12 10 11 11 11 11 11 11 11 11 11 12 13 12 11 12 14 15 14 15 15 15 15 15 17 17 17 17 17 18 19 19 19 19 19 19 19 19
2 3 1 2 1 2 1 3 0 1 1 4 3 1 5 3 2 6 8 8 4 6 4 6 8 3 3 2 2 3 5 7 5 4 3 4 10 9 7 10 11 11 9 9 10 9 10 11 10 11 13 13 12 12 13 13 11 11 12 12 11 11 11 11 10 11 11 11 12 12 13 12 13 11 12 14 15 14 13 14 15 16 16 16 17 17 17 17 18 19 19 19 18 18 19 18 18
2 5 2 2 1 3 2 1 3 1 1 2 4 1 3 5 5 5 6 3 5 7 6 6 6 3 1 2 4 4 4 2 4 2 5 9 12 8 10 10 10 10 10 9 9 9 8 10 9 11 13 13 12 13 13 13 12 11 12 12 12 11 10 10 10 11 12 12 13 12 12 12 12 12 12 14 14 13 13 15 15 15 15 15 17 17 17 17 17 18 18 18 18 18 19 18 18
2 2 3 2 1 1 1 1 1 2 1 3 2 4 5 4 4 5 6 4 6 7 7 8 8 2 4 3 2 1 4 3 3 7 7 10 5 11 11 11 10 8 8 7 9 8 8 10 9 11 11 12 13 13 13 13 13 11 10 11 11 12 10 9 10 10 11 11 11 12 12 12 13 13 13 13 13 14 15 14 14 14 15 16 16 16 16 17 17 18 18 18 18 18 18 18 18
2 1 3 1 3 2 1 2 1 2 0 1 3 3 5 4 5 6 5 6 6 4 6 7 3 3 3 3 1 3 4 6 5 5 6 7 8 11 12 11 9 8 8 9 9 9 9 11 9 10 11 13 13 13 12 13 12 12 11 11 12 12 11 10 9 8 11 12 11 12 11 12 12 12 13 13 13 13 14 14 14 15 15 15 16 16 16 16 17 17 18 18 18 18 17 17 17
1 2 3 2 2 2 2 4 4 1 4 0 2 4 1 4 7 6 9 7 4 1 3 9 2 6 3 1 3 2 4 2 6 5 9 7 11 13 12 11 9 9 9 9 9 8 10 10 9 10 12 12 13 12 12 13 13 13 12 10 9 11 11 12 10 9 7 14 12 12 12 12 12 12 12 12 13 14 14 14 14 14 15 15 16 16 16 16 17 17 17 18 17 17 16 16 15
4 3 1 3 4 2 1 2 2 1 4 3 3 4 2 6 7 11 10 7 2 1 1 4 1 4 3 3 3 2 4 2 6 5 8 10 12 12 12 9 9 10 10 9 9 8 11 9 9 10 10 11 13 12 13 13 13 13 13 10 9 12 10 11 12 10 11 12 13 12 12 11 12 12 12 12 12 13 13 14 14 14 14 14 15 15 16 16 16 17 17 17 16 15 15 14 14
2 3 2 3 3 2 2 1 1 1 3 2 3 1 3 6 7 10 12 9 8 6 6 1 3 5 4 1 2 5 2 1 5 6 8 11 12 12 11 9 9 10 10 9 9 8 9 6 9 9 9 11 11 12 12 12 13 12 12 11 9 12 10 10 12 13 11 11 11 11 11 11 10 11 10 11 12 12 13 13 13 13 14 14 14 15 15 15 16 16 16 15 15 14 14 14 14
4 2 1 2 3 1 2 2 1 1 1 2 3 3 2 3 8 9 12 2 5 1 8 6 3 6 5 5 1 4 3 3 1 8 10 13 13 12 8 8 9 9 10 9 9 9 10 7 9 8 8 10 10 12 12 12 12 12 12 12 10 10 10 10 11 12 10 10 10 10 10 11 11 10 10 11 11 12 12 12 13 13 13 13 13 14 14 14 15 15 15 14 14 14 14 14 13
2 3 3 0 1 3 1 2 3 3 1 2 3 2 4 5 8 7 10 6 4 6 4 3 2 3 5 4 4 4 4 4 6 11 11 12 12 11 10 8 8 10 10 9 10 9 8 7 7 8 8 8 9 9 11 10 11 11 11 12 11 10 9 9 9 12 11 11 11 11 10 10 9 10 9 10 10 11 12 13 12 12 12 12 13 13 13 13 14 14 14 13 13 13 13 13 13
1 2 2 4 3 2 3 3 2 3 2 1 5 6 3 6 9 7 6 4 3 4 5 4 4 4 6 2 1 3 3 5 10 13 12 12 12 11 9 7 7 9 9 10 10 10 9 10 7 7 8 9 8 7 7 8 11 11 10 11 11 11 9 10 11 11 11 11 11 11 10 10 10 10 10 9 9 9 11 11 12 12 12 11 12 12 12 12 13 13 13 12 13 13 13 13 12
1 1 2 3 3 2 2 1 1 1 2 2 2 4 4 8 9 8 8 7 6 5 6 10 1 7 3 1 3 4 6 7 11 11 12 12 11 11 9 7 7 7 9 9 9 10 10 9 9 6 7 9 8 7 5 6 9 10 10 10 10 10 10 10 9 9 8 10 11 11 11 10 10 10 10 9 7 7 9 10 11 11 11 11 11 11 11 11 11 12 12 12 12 12 12 12 12
2 1 2 4 1 2 3 3 0 3 3 2 2 3 3 10 12 11 11 5 7 7 5 9 3 4 3 3 4 5 8 9 11 12 13 11 11 10 8 8 7 7 8 8 9 10 10 10 8 9 7 9 8 7 5 7 8 8 9 10 9 8 8 9 9 9 10 11 11 11 11 10 10 11 10 9 8 8 9 9 10 10 11 11 11 11 11 11 11 11 11 11 11 12 12 11 11
1 1 1 1 1 0 2 1 0 2 3 4 2 2 6 5 6 3 8 8 8 7 4 6 3 3 0 1 5 6 8 11 12 13 10 12 10 9 9 8 8 7 8 9 9 10 10 9 8 9 9 10 10 8 8 7 6 8 9 8 8 7 7 8 9 9 9 9 9 9 10 10 10 10 9 8 8 8 7 5 7 10 10 10 10 10 11 11 11 11 11 11 11 11 11 11 11
1 1 1 2 2 2 1 2 1 1 3 4 3 2 4 2 3 3 9 10 6 5 3 1 1 3 2 7 4 7 11 14 13 12 11 11 11 10 10 8 8 8 8 9 8 10 10 9 9 8 8 8 10 9 9 8 6 7 8 8 7 7 8 8 9 9 9 9 9 9 9 9 9 9 8 8 7 7 6 6 6 8 10 10 10 10 10 11 11 11 11 11 11 11 11 10 10
2 2 0 3 2 3 4 2 2 2 3 4 3 2 4 1 1 4 2 5 4 2 3 5 3 2 3 2 6 4 16 16 13 13 12 12 11 9 9 9 8 9 8 8 8 9 9 9 8 8 8 8 8 8 9 11 7 8 8 8 8 8 8 8 9 9 9 9 9 9 9 9 8 7 7 8 7 7 7 7 7 7 9 10 10 10 10 11 11 11 11 10 11 10 11 10 9
1 2 4 2 4 5 4 3 4 1 5 4 2 3 5 4 2 3 3 3 4 6 4 1 4 1 2 4 4 2 15 15 13 14 12 11 10 8 7 8 8 8 7 9 8 8 9 9 9 7 9 8 8 8 7 9 9 9 7 7 8 9 9 8 9 9 8 8 8 8 7 6 6 6 6 6 6 6 8 9 9 8 8 8 9 10 10 10 11 11 11 11 10 9 9 9 8
3 5 5 5 2 5 4 2 2 2 2 5 2 2 5 5 4 2 2 4 1 4 5 3 0 3 2 4 2 5 16 16 16 16 14 11 10 9 9 9 9 9 9 8 9 9 9 9 9 9 8 10 8 7 6 7 9 10 9 7 7 7 8 9 8 7 8 7 7 6 5 5 5 5 5 6 6 8 7 8 9 9 9 9 8 9 10 9 9 10 10 9 8 6 2 3 5
4 3 4 6 5 3 2 3 1 2 3 5 2 1 5 2 3 5 6 6 6 6 7 5 5 5 2 1 5 12 15 16 16 16 16 15 12 13 11 10 10 10 10 9 8 10 9 8 9 10 9 10 10 8 6 6 9 8 8 8 6 7 8 8 7 8 7 8 8 6 5 5 5 4 3 4 4 8 7 8 9 9 9 9 9 9 9 9 9 9 9 9 6 2 3 3 3
2 3 6 4 3 5 1 1 2 1 3 4 5 1 4 2 3 5 6 4 5 11 8 7 9 11 9 6 8 13 14 15 16 17 17 15 14 13 12 13 12 12 12 10 9 8 9 8 9 9 9 10 9 8 7 7 7 7 7 7 6 7 7 6 6 7 7 8 7 6 5 5 5 4 6 7 6 6 5 7 8 9 9 8 7 6 7 7 8 7 7 5 3 2 2 2 2
1 2 4 2 2 5 3 2 3 3 1 4 3 1 3 3 4 6 4 7 10 11 12 11 13 13 11 9 11 14 15 15 16 16 16 16 15 12 12 12 12 11 10 10 9 10 11 10 9 9 10 10 10 9 9 8 7 7 7 7 7 6 7 6 6 6 6 8 7 6 6 6 5 5 5 5 4 4 5 5 5 4 3 4 3 4 4 3 3 3 3 2 2 2 2 2 1
2 2 3 3 3 2 6 3 4 3 1 1 1 4 3 3 3 8 8 10 7 6 10 11 8 8 13 13 13 14 16 16 17 17 18 19 18 16 14 12 12 11 10 10 11 10 11 10 10 9 10 10 10 9 9 8 7 8 8 7 7 7 6 7 6 6 6 7 7 6 6 6 6 5 5 5 4 5 5 4 4 3 3 3 2 3 2 3 3 3 2 2 1 1 1 1 1
4 2 1 1 3 3 4 4 2 1 1 3 4 2 3 4 3 6 11 16 1 2 4 3 6 6 11 12 14 15 16 18 18 19 19 19 19 17 16 13 13 12 11 11 11 10 11 11 11 9 10 9 11 9 8 8 9 8 7 7 8 7 7 7 6 6 6 7 6 7 7 6 6 5 5 5 5 4 4 4 4 3 3 3 1 2 2 2 2 3 3 2 2 1 1 1 1
4 2 2 3 3 4 3 2 3 1 1 3 2 1 5 2 7 2 11 16 4 3 2 2 1 8 13 14 15 17 18 20 21 20 20 20 20 20 17 15 13 11 10 11 11 11 11 13 12 12 10 10 10 10 9 9 8 9 8 7 7 7 7 6 6 6 6 6 7 6 6 6 6 6 6 6 5 5 5 4 3 3 3 2 2 1 1 1 2 2 2 2 3 2 1 1 1
6 5 4 1 1 4 4 2 2 0 2 0 1 4 5 5 4 2 11 14 8 2 2 3 6 9 11 12 14 14 15 15 16 17 14 14 16 16 15 12 12 11 13 12 11 11 12 12 13 13 12 12 10 10 9 8 8 9 9 9 9 7 8 6 6 6 6 6 7 7 6 5 5 5 6 6 5 5 4 4 4 3 3 3 2 1 1 2 2 2 2 2 2 2 2 1 1
8 5 3 1 3 2 3 3 2 2 1 2 3 6 3 3 1 8 17 11 7 5 3 5 7 9 11 13 14 15 15 17 16 16 18 16 14 16 16 14 13 14 14 13 11 11 12 13 14 14 13 11 10 10 9 8 8 9 9 9 8 8 9 7 6 6 6 6 6 7 7 6 5 5 5 5 5 5 4 4 4 4 3 3 3 2 2 2 2 3 3 3 3 2 2 0 2
4 6 4 3 0 2 2 6 4 3 3 3 5 5 1 2 3 6 3 3 4 6 6 5 8 10 11 11 11 12 14 16 18 15 13 13 15 16 17 16 16 16 14 14 12 12 11 12 13 13 13 12 10 11 9 9 9 9 9 8 9 9 9 8 8 7 6 6 6 7 7 7 5 5 5 5 5 5 5 4 4 4 4 3 3 3 2 2 2 3 3 3 3 2 1 1 2
3 3 4 6 6 5 3 3 6 2 5 7 6 5 1 3 3 9 3 3 2 7 6 6 8 9 9 11 12 11 12 12 12 12 16 17 15 16 17 16 17 16 16 15 13 12 12 14 14 14 13 12 12 12 10 10 10 9 9 8 8 9 9 9 8 8 7 6 6 6 7 7 6 5 5 6 5 5 5 5 4 4 4 4 4 4 3 2 2 2 2 1 1 2 2 2 2
3 2 4 2 2 7 8 10 10 8 6 5 4 6 7 7 9 11 2 3 3 6 5 5 7 8 8 9 9 10 11 11 12 13 15 15 14 13 16 16 16 16 14 15 15 13 15 15 13 14 14 13 13 12 11 10 9 9 9 9 8 8 9 9 9 9 8 8 7 7 7 7 6 6 6 6 6 5 5 5 5 5 4 4 4 4 4 3 3 3 3 2 3 3 3 3 2
3 2 2 3 4 8 8 8 3 8 4 7 5 9 10 12 17 6 5 5 5 5 8 8 7 7 6 7 8 9 9 10 13 14 13 14 14 14 16 15 16 14 13 12 16 16 13 9 10 11 13 14 14 12 11 10 10 9 9 9 8 8 8 8 9 8 8 8 8 9 8 8 7 6 6 6 6 5 6 6 6 5 5 5 4 5 4 4 4 4 4 4 3 3 4 3 3
5 3 1 2 1 3 5 4 8 9 4 7 3 10 9 5 8 5 6 8 9 8 10 9 8 7 7 7 8 9 11 12 15 15 14 15 14 13 15 14 15 15 12 13 16 17 16 12 11 11 11 15 12 14 12 11 10 10 9 9 9 9 8 8 8 7 8 8 8 8 9 8 8 7 7 6 7 6 6 6 7 6 5 5 4 5 5 5 4 5 5 4 4 4 4 4 3
4 5 5 3 5 3 5 5 9 9 4 6 8 10 13 12 9 5 3 3 6 10 10 9 8 8 8 7 9 9 10 11 12 12 13 14 14 12 14 16 16 16 17 15 15 15 16 16 13 14 13 14 15 15 14 13 12 11 10 9 9 10 9 9 8 8 7 7 7 7 9 9 8 8 8 7 6 7 7 7 7 6 5 4 5 4 4 5 5 5 5 5 5 5 4 4 4
3 5 3 5 6 6 2 6 4 2 5 5 13 8 2 6 11 4 4 5 6 9 10 9 8 8 8 8 8 8 8 9 10 12 14 14 14 13 13 15 16 17 17 16 16 16 17 17 13 17 16 15 15 16 15 14 13 12 12 10 11 10 9 9 9 8 9 8 7 7 8 9 9 9 8 8 7 7 8 8 7 5 5 5 5 5 5 6 6 5 5 4 4 5 5 5 5
5 2 3 5 7 5 5 5 4 3 6 8 12 11 15 11 5 3 3 7 7 9 11 9 7 7 8 7 8 8 9 9 12 13 16 16 14 16 13 13 15 16 16 17 16 16 17 16 15 14 16 15 14 14 15 14 13 12 11 11 10 10 11 9 9 9 9 9 8 7 8 9 8 9 9 8 7 7 7 7 6 5 5 5 5 5 5 5 5 4 6 4 4 4 6 7 6
9 8 8 7 7 7 7 4 4 3 5 9 9 14 15 16 15 12 7 7 7 10 11 9 7 8 8 7 8 10 9 11 13 13 15 16 15 14 14 14 14 15 13 16 16 16 14 15 14 13 14 16 15 14 14 14 13 12 12 12 12 12 10 10 9 9 8 9 9 10 10 8 8 9 9 9 8 7 7 7 6 6 5 5 4 4 4 4 3 4 6 4 4 5 7 5 5
16 16 13 8 8 8 10 6 3 2 4 7 12 12 14 16 16 15 14 8 10 12 7 5 7 6 7 8 8 8 10 12 11 8 10 11 13 12 12 12 12 12 13 14 17 17 16 16 15 14 14 15 14 13 13 12 12 12 13 12 11 10 10 9 9 9 9 9 9 10 11 9 7 8 9 9 9 8 7 7 7 6 6 6 6 6 6 5 6 7 7 7 6 5 5 5 4
13 11 7 10 9 8 2 1 2 1 4 11 13 14 15 16 15 16 17 6 7 10 11 9 9 8 7 7 9 10 10 14 3 6 9 11 11 11 12 12 12 14 14 15 16 18 18 17 16 17 15 15 13 12 12 12 11 11 12 13 12 11 11 10 9 9 9 9 10 10 11 10 10 10 9 9 9 8 8 6 6 6 6 6 7 8 8 8 7 7 6 5 6 7 7 5 5
10 7 7 6 5 9 4 3 4 1 5 9 4 6 13 15 15 14 13 10 11 12 13 13 12 12 9 9 10 10 12 6 3 6 8 9 11 12 12 11 13 15 15 16 18 19 19 20 19 17 15 15 15 14 12 12 12 12 11 11 11 11 11 11 11 10 9 8 10 11 10 10 11 11 10 10 9 9 8 7 7 7 7 7 7 6 7 8 7 6 6 6 6 9 9 6 4
8 9 8 7 8 7 5 4 3 2 3 10 11 12 15 18 17 13 13 15 14 13 13 14 13 11 9 8 9 10 7 9 6 10 10 10 11 12 12 12 13 17 16 17 18 18 18 18 18 18 16 16 15 15 14 14 13 13 13 12 12 11 9 9 10 11 10 10 10 11 10 11 11 11 11 11 8 9 9 8 8 7 8 7 6 7 8 8 6 7 7 7 6 5 6 1 4
8 8 7 11 5 8 6 4 4 5 5 6 5 9 13 16 15 15 15 15 15 13 12 14 13 13 12 11 10 8 8 9 10 11 11 10 11 12 12 12 13 14 15 16 16 17 14 15 16 17 17 17 16 16 14 16 15 15 15 14 13 12 11 10 9 9 10 11 13 12 11 11 12 11 11 11 10 8 9 9 8 7 8 8 8 8 8 8 7 7 7 7 6 7 5 5 6
10 11 10 9 7 10 10 3 1 3 3 1 10 13 15 14 16 14 15 14 13 12 12 11 11 10 11 9 7 8 13 12 10 10 9 9 11 14 16 15 12 13 15 15 15 15 13 18 18 18 16 16 16 16 18 17 14 14 13 11 9 11 10 10 10 12 12 11 10 11 11 11 11 10 9 11 11 11 9 9 8 8 8 9 9 8 9 10 9 8 7 7 8 8 8 8 4
10 13 12 10 8 9 4 3 4 6 6 5 2 8 8 6 13 14 12 6 10 11 11 12 13 12 12 13 14 12 11 11 13 14 11 10 11 11 11 11 13 14 15 16 15 17 17 16 17 17 14 14 15 17 18 16 15 15 14 12 14 13 13 12 14 15 14 13 13 10 10 11 10 10 11 11 10 7 11 12 10 9 10 10 9 8 7 7 9 9 9 9 9 9 9 7 6
10 10 13 12 8 8 5 4 2 6 8 2 2 9 10 1 9 6 6 8 10 8 10 13 13 12 12 12 12 12 12 12 11 13 11 9 11 11 12 13 15 15 17 14 13 15 17 15 15 16 15 13 14 15 16 14 17 15 17 17 16 15 16 13 12 13 13 12 10 11 10 10 11 11 11 12 11 9 9 9 10 10 11 9 10 9 9 10 10 10 8 9 11 9 7 8 8
10 6 15 12 10 9 8 8 8 6 4 2 4 6 11 12 11 10 11 14 12 11 13 15 15 13 11 10 12 13 12 13 10 13 14 13 12 12 15 17 15 17 14 11 13 14 17 17 15 16 14 13 12 13 15 16 16 15 16 16 15 16 16 15 13 14 14 11 11 11 10 10 12 12 11 11 11 11 9 11 9 9 7 9 8 9 10 10 9 6 9 9 8 6 7 8 8
2 8 13 11 11 7 6 6 3 1 5 9 4 5 7 11 3 8 12 14 15 18 19 17 13 14 14 14 13 13 14 13 13 11 13 12 14 14 15 13 14 12 11 13 15 14 13 14 15 13 14 13 12 14 15 18 17 14 16 15 16 15 15 14 12 12 13 13 14 9 10 10 11 12 12 12 11 12 9 11 11 9 8 7 5 7 7 8 9 9 8 7 8 7 7 9 8
2 5 8 7 6 5 2 2 2 1 3 13 7 7 8 18 5 6 6 10 15 18 16 18 17 15 13 13 14 15 14 11 11 13 12 10 10 10 10 9 8 12 12 11 12 11 12 12 14 16 17 14 13 15 16 18 19 15 15 16 16 15 13 13 13 13 13 12 15 13 11 10 10 10 11 12 12 12 11 11 10 11 11 10 7 8 8 8 8 9 8 8 8 8 7 6 9
10 11 11 7 5 2 3 2 1 3 10 12 6 9 7 14 5 12 7 9 14 12 9 11 13 15 13 13 13 12 13 12 11 11 10 10 8 7 7 12 14 8 6 10 11 12 12 13 15 16 18 14 14 15 16 18 17 18 17 17 18 16 16 15 14 15 13 14 14 14 12 11 11 11 10 11 12 11 12 11 10 11 11 9 8 9 8 9 8 11 7 7 6 8 7 7 6
13 6 10 9 3 2 1 1 1 4 10 3 7 9 11 12 3 6 12 3 3 10 12 12 13 15 13 10 11 11 11 10 10 8 9 8 7 8 7 10 12 11 8 10 11 11 12 13 14 17 17 17 14 14 16 16 16 19 19 18 16 16 15 13 16 16 15 16 16 13 12 11 10 10 10 9 10 11 10 10 11 11 10 9 10 10 10 11 10 8 6 6 7 8 6 5 7
5 9 12 10 4 4 4 3 4 11 8 1 1 3 5 22 12 1 3 8 10 7 8 9 11 12 14 14 14 9 5 5 6 6 6 6 7 8 9 11 9 9 10 11 11 10 11 12 15 16 17 17 15 15 16 18 18 19 20 19 16 14 16 15 15 15 14 15 14 13 12 11 10 11 11 10 11 13 10 11 10 10 10 9 9 10 9 8 7 8 9 10 10 10 10 10 9
8 12 12 9 7 6 6 6 2 4 2 1 3 1 9 15 10 11 12 17 17 8 8 10 10 9 8 8 3 2 3 5 6 6 6 6 5 6 6 7 8 8 10 10 10 10 10 11 14 16 17 15 15 15 16 17 19 19 19 18 17 14 15 15 13 13 14 14 13 13 13 12 10 11 11 11 12 13 11 10 9 9 9 11 11 10 10 10 8 8 9 9 10 10 9 10 9
10 8 12 9 8 7 11 10 12 7 1 3 2 3 7 3 2 2 8 7 6 5 5 6 9 9 10 8 5 6 6 6 5 4 6 6 5 5 5 6 7 8 9 10 10 11 11 11 13 16 15 15 16 17 15 18 17 19 18 17 15 15 16 13 14 13 13 14 13 13 13 12 11 10 11 12 13 13 12 11 11 10 10 8 8 11 9 8 7 7 6 7 8 8 7 7 6
7 2 4 6 10 1 3 1 2 1 2 3 5 8 5 6 7 9 7 7 10 8 9 7 10 8 4 6 7 7 7 7 5 6 7 9 8 6 6 6 7 6 9 8 10 10 11 12 13 14 15 14 15 16 16 16 16 15 17 18 17 16 11 13 13 11 12 13 13 12 13 13 12 11 12 12 13 12 11 11 10 11 11 9 8 9 8 7 8 7 7 6 6 4 7 8 6
9 8 12 6 5 6 3 1 2 3 1 9 5 7 9 7 14 17 16 11 12 10 10 9 10 5 5 8 9 9 7 7 6 7 8 9 6 7 7 8 6 6 7 9 9 10 11 10 11 13 13 12 13 15 15 15 15 16 16 17 16 15 15 16 14 14 14 13 13 12 12 13 13 11 10 9 10 11 9 10 9 10 10 8 8 7 7 8 8 8 7 7 6 6 7 8 7
9 6 9 6 4 4 2 5 2 4 8 6 5 12 9 2 10 3 13 18 17 14 10 9 7 3 7 8 8 9 9 8 7 8 9 9 8 8 6 6 6 6 7 7 8 8 7 8 10 11 11 13 12 12 14 14 15 16 16 16 16 15 15 15 14 13 12 12 13 13 12 11 12 11 7 8 8 9 9 9 9 8 8 8 8 6 7 7 7 6 8 7 7 8 8 7 7
9 12 10 12 7 10 9 2 6 6 6 5 5 9 11 11 13 3 5 9 11 15 15 10 9 8 8 9 9 8 8 6 7 9 9 9 8 7 5 4 4 4 3 3 3 5 6 7 8 9 12 12 12 10 12 12 13 12 12 14 16 15 13 13 13 12 10 9 13 13 13 12 10 10 10 8 7 7 8 8 8 7 7 8 8 7 7 7 7 5 5 7 8 8 9 9 7
3 3 13 1 1 9 9 8 0 2 5 2 3 3 8 11 10 12 11 7 7 4 8 13 14 13 10 7 7 6 6 6 5 5 6 6 6 3 2 3 4 4 4 3 4 4 6 6 7 8 7 7 8 9 10 14 14 11 7 10 10 10 11 12 12 10 9 14 12 12 11 11 12 10 9 8 8 8 8 8 7 7 7 6 7 7 8 8 7 8 7 7 7 8 9 10 9
7 11 12 7 4 4 1 1 4 5 5 7 6 5 7 4 7 8 14 15 13 10 10 10 9 9 5 4 5 5 4 3 5 6 5 5 4 1 2 3 3 3 3 3 4 4 4 4 6 7 9 9 9 8 11 12 11 13 12 14 13 13 13 11 9 10 12 12 10 10 11 11 8 8 8 8 8 8 8 8 8 8 9 9 7 6 7 8 8 8 6 7 8 9 10 8 8
12 14 16 18 14 8 11 11 5 1 5 4 4 10 5 3 3 8 10 12 12 12 12 11 10 3 3 4 4 2 4 5 5 5 5 4 4 3 4 3 3 4 4 4 4 4 4 5 4 5 5 7 8 9 11 11 11 11 13 13 12 11 10 8 10 10 9 9 9 9 8 7 9 8 8 8 8 7 7 8 8 7 6 7 8 9 7 8 10 9 8 5 8 11 12 9 8
Wind_Direction
306 333 259 217 247 278 235 9 240 103 242 81 127 213 103 42 350 159 148 135 169 136 135 140 136 151 273 8 17 55 25 239 12 293 55 88 171 143 142 141 136 138 138 142 144 147 144 133 139 141 131 121 121 122 119 114 110 109 102 106 104 97 87 80 92 85 76 77 86 92 88 89 88 87 92 94 90 86 86 89 91 94 92 86 82 81 82 80 81 81 79 77 76 76 76 75 75
301 316 235 235 287 271 154 317 9 197 175 147 97 302 106 149 198 189 156 175 52 138 146 148 151 96 21 304 82 129 99 36 14 58 76 119 151 143 144 151 145 141 140 144 147 147 138 132 138 143 132 128 127 126 119 115 112 113 113 100 101 89 91 97 96 97 93 95 93 89 91 95 97 89 90 90 87 87 89 94 98 94 91 89 85 82 80 80 83 83 82 80 78 77 76 74 74
338 343 243 208 167 17 133 264 244 29 249 105 110 110 114 184 198 158 145 83 89 107 133 134 131 153 135 169 180 272 92 41 89 102 104 148 145 161 158 148 147 141 139 148 150 147 141 135 143 143 136 134 128 121 117 114 115 110 103 104 100 99 101 104 96 96 100 95 90 87 87 92 94 97 99 95 91 92 91 83 84 85 83 86 85 83 82 80 82 83 82 80 80 78 76 74 75
279 30 332 263 236 229 302 198 307 259 41 39 111 121 188 204 172 127 77 85 108 133 140 145 173 44 292 207 33 110 99 124 119 133 134 165 157 149 153 148 144 144 140 146 153 150 145 135 146 146 140 137 133 127 124 122 120 115 112 106 98 105 106 97 96 94 94 92 96 90 79 83 92 97 95 93 94 91 90 94 93 96 95 88 86 85 83 81 81 83 84 82 81 79 78 78 77
283 61 345 271 277 84 335 39 7 264 44 132 55 121 202 214 140 128 99 116 116 140 165 156 170 72 2 357 19 295 87 78 149 159 146 151 133 150 151 147 152 145 148 152 152 150 133 129 144 148 146 142 137 133 129 128 122 110 101 110 124 108 108 107 99 84 102 94 92 97 97 97 99 96 96 93 93 91 90 86 86 84 88 90 86 84 84 84 83 82 82 82 81 79 79 78 77
183 333 26 305 302 35 179 182 174 174 48 73 86 58 167 174 151 130 129 131 109 41 6 173 321 157 186 74 6 8 141 157 135 182 163 147 153 152 151 155 152 151 148 152 152 150 142 133 143 152 150 146 140 137 132 131 123 116 116 112 104 109 112 105 97 95 95 108 101 91 85 80 87 98 108 108 100 92 92 91 94 92 89 87 87 86 87 87 86 83 82 81 81 80 79 78 78
9 297 37 87 115 248 251 189 135 84 97 310 57 53 111 150 139 135 143 142 174 22 175 186 200 133 207 123 151 73 36 85 165 162 180 143 151 157 155 160 151 149 150 149 151 147 138 138 149 156 152 149 142 140 137 134 129 124 119 110 110 110 103 107 107 103 112 108 103 100 97 97 100 100 98 94 98 94 92 93 91 90 87 84 85 86 86 87 87 86 85 84 83 83 81 79 78
128 277 27 247 90 264 157 130 152 260 96 271 8 31 103 150 151 161 159 175 164 196 172 240 214 254 56 274 245 103 74 277 19 148 152 150 154 157 166 156 155 149 152 150 152 147 121 153 148 153 153 152 148 142 141 138 133 129 124 121 121 116 107 106 112 116 114 102 101 102 102 99 102 97 100 102 100 98 93 91 89 86 86 86 84 86 89 90 89 89 89 87 85 83 81 80 78
17 356 194 217 168 101 175 194 76 34 349 207 224 251 24 154 180 168 167 162 105 232 160 179 173 218 127 160 119 106 113 106 229 156 157 156 160 161 168 165 157 152 152 153 153 148 150 125 145 147 149 154 156 148 145 141 137 134 132 125 119 118 118 110 115 109 108 106 103 100 101 103 101 103 111 114 107 100 98 94 93 92 92 93 92 92 93 94 94 92 91 89 86 83 80 77 75
111 316 161 347 20 195 260 156 223 112 262 153 270 145 176 163 184 203 167 164 149 161 125 96 156 273 136 169 136 172 136 163 169 162 162 158 161 166 170 166 156 155 154 156 156 155 147 120 132 143 148 146 152 157 146 146 141 137 135 128 122 122 124 123 115 115 115 114 108 107 107 108 112 107 104 104 104 106 104 99 99 100 97 94 96 98 97 94 95 94 93 90 87 83 79 76 75
61 60 1 208 196 195 212 144 217 156 199 169 254 227 182 168 178 184 185 147 103 167 125 173 185 188 191 109 10 58 114 161 171 162 163 162 163 170 169 167 158 161 156 161 156 157 151 148 113 127 141 146 151 158 140 144 142 140 136 131 127 126 128 109 102 112 119 120 115 110 108 108 106 105 106 106 99 100 105 105 101 97 97 97 95 96 99 99 97 95 92 90 88 85 82 79 77
238 342 240 214 209 242 102 297 257 354 277 210 208 125 169 172 168 181 188 184 170 161 167 190 148 142 175 137 165 131 139 164 170 157 161 162 169 171 171 167 162 160 156 160 161 159 157 147 156 116 120 143 148 150 133 143 147 139 137 135 133 132 133 118 111 113 123 118 115 113 109 108 110 108 102 99 99 109 115 106 104 101 98 93 93 92 92 94 95 95 93 91 90 88 84 81 79
47 254 206 228 86 232 76 256 72 323 283 149 46 74 153 168 186 193 182 190 164 170 187 191 82 226 190 168 74 134 164 170 160 157 161 167 168 169 176 169 166 159 157 164 169 162 163 162 157 162 129 132 136 135 131 134 143 139 139 137 136 132 132 125 115 113 117 123 119 116 112 107 101 99 89 73 64 86 96 94 105 105 96 94 91 91 91 91 93 92 90 89 88 86 83 80 77
256 254 265 218 1 81 198 30 349 277 144 41 63 62 180 180 203 200 163 186 181 192 59 147 160 193 59 218 155 173 173 170 157 160 161 167 166 170 176 173 170 166 166 175 172 167 168 168 162 161 150 161 153 138 131 140 144 143 138 134 132 129 112 107 107 105 110 108 102 101 104 105 102 91 85 79 70 65 66 79 102 105 106 98 94 91 91 92 89 87 86 86 85 83 82 79 75
130 239 103 99 141 237 125 235 35 249 91 8 54 164 184 271 337 196 193 209 164 42 109 326 359 224 112 202 149 181 161 165 160 160 161 166 167 172 174 173 175 176 175 182 176 171 174 172 168 164 172 173 164 168 162 144 147 135 134 131 126 112 109 109 105 107 107 103 100 98 96 95 89 88 87 83 78 74 74 89 81 105 110 105 98 91 86 84 83 83 83 84 84 81 80 78 73
101 175 58 202 174 239 133 219 153 259 84 19 82 27 205 125 319 195 194 337 92 97 198 167 210 305 349 262 54 100 149 156 159 157 154 160 169 171 173 177 182 179 182 184 179 180 178 177 175 173 173 177 180 168 166 160 141 136 135 129 123 120 116 113 111 110 110 108 104 108 110 113 111 98 99 95 77 77 63 79 83 97 109 108 96 90 87 86 84 83 82 82 82 81 78 73 70
167 263 190 189 203 203 133 216 175 171 65 70 124 175 200 186 105 305 348 264 182 157 207 65 172 254 38 58 43 105 144 152 155 154 153 156 169 171 173 186 189 181 187 191 192 183 182 183 183 177 178 177 178 170 168 163 139 133 129 127 127 125 123 118 113 114 115 117 123 120 144 145 140 133 146 126 121 90 86 88 83 80 96 104 101 93 90 86 84 84 83 82 82 86 87 79 67
218 205 210 210 166 192 137 195 175 53 356 40 91 199 232 232 161 130 190 186 15 123 211 120 193 237 26 54 350 165 144 155 160 159 162 161 174 174 182 189 190 191 191 192 197 189 183 186 187 183 178 180 176 168 171 161 149 159 168 156 155 140 131 133 148 155 151 145 129 158 166 156 155 151 133 139 139 133 95 82 86 86 79 72 77 94 87 84 80 81 82 80 78 79 132 127 110
215 164 209 228 177 86 91 78 99 257 34 353 344 207 228 248 171 156 217 193 194 194 205 183 194 192 137 115 128 158 156 161 166 170 167 172 177 181 183 186 195 195 195 194 194 195 189 184 187 188 182 181 179 169 171 172 171 178 176 183 169 170 154 166 170 164 170 170 171 172 170 161 159 152 124 95 85 60 83 79 90 88 86 85 84 78 77 77 81 84 82 84 82 128 108 95 79
11 230 200 212 127 109 58 214 115 339 340 334 343 77 234 206 196 112 231 216 188 222 196 186 210 203 184 141 152 163 168 170 174 177 180 181 184 187 188 189 193 199 198 197 192 194 194 191 187 189 186 181 183 179 176 179 182 183 187 190 186 186 176 182 174 174 174 175 177 180 172 160 159 146 94 122 139 143 106 92 96 100 98 90 112 108 98 91 98 91 92 116 127 96 80 82 68
105 230 213 155 126 155 115 160 108 108 188 325 331 139 246 209 208 194 208 233 227 232 226 203 204 202 165 159 164 169 174 177 182 188 188 190 190 192 195 195 195 196 199 197 199 195 195 194 187 191 191 186 188 184 187 183 186 190 187 193 193 190 190 188 182 180 175 177 181 183 172 162 164 157 162 157 168 159 162 159 154 161 159 138 193 151 162 145 183 140 140 161 110 112 99 80 53
150 252 57 105 127 214 133 126 108 103 152 294 216 275 348 61 177 216 216 226 237 231 222 220 239 184 151 166 169 173 180 184 189 191 194 193 193 194 198 199 200 199 195 201 202 199 196 195 189 189 190 191 191 192 191 183 183 193 186 193 195 194 192 194 189 188 179 179 184 180 172 172 171 166 171 172 171 171 172 170 172 174 170 163 189 166 147 157 146 157 163 175 135 106 85 80 85
220 167 258 212 192 233 117 145 126 9 24 325 309 23 330 242 265 217 223 233 248 22 13 281 228 167 158 154 159 178 184 190 192 196 195 197 197 196 197 198 198 200 198 204 201 204 196 196 191 192 189 192 195 197 193 192 198 197 189 191 197 197 194 194 195 194 189 183 181 179 180 182 183 183 179 182 181 181 181 177 173 178 174 169 183 186 135 143 169 179 194 181 130 121 101 92 104
282 203 156 189 172 212 146 147 141 37 289 335 44 327 270 249 264 101 233 238 222 68 13 313 160 130 142 157 176 180 186 190 196 199 197 199 197 197 196 197 200 198 200 201 203 203 199 199 193 194 193 192 194 197 198 198 199 198 195 186 204 195 200 199 196 198 190 191 192 185 192 184 188 192 192 191 189 192 188 185 179 178 176 171 178 246 177 161 175 161 162 156 172 156 157 169 163
223 240 203 190 181 233 227 255 269 307 250 305 223 273 266 234 282 31 249 245 215 141 118 121 147 147 160 167 178 185 189 196 200 200 202 206 206 204 202 202 201 201 203 201 204 206 203 200 196 197 193 195 194 195 201 201 200 201 197 200 202 193 205 202 197 192 196 199 197 196 192 190 191 192 195 196 191 196 190 192 193 193 185 179 195 187 222 187 187 180 180 186 202 205 209 216 275
210 221 167 143 219 204 203 215 230 178 178 170 266 263 271 250 51 252 254 251 216 145 127 133 149 159 173 182 181 183 190 196 197 196 202 202 203 204 206 204 205 208 206 199 198 205 206 201 201 200 197 195 194 195 200 202 203 204 205 203 202 195 207 206 201 199 200 195 197 202 196 201 192 192 191 191 196 197 194 195 199 200 205 188 204 202 192 225 195 181 184 195 208 221 245 41 298
200 185 175 194 131 282 169 238 190 174 255 177 266 285 277 116 199 275 165 314 116 174 186 167 175 182 183 182 184 191 191 195 196 197 196 200 204 208 210 209 210 212 207 205 203 206 205 203 204 203 203 200 197 199 199 201 203 207 207 205 203 206 207 205 207 208 206 201 200 194 200 206 195 193 185 187 195 194 196 196 201 201 209 207 208 206 194 235 216 206 194 206 214 236 271 337 297
109 180 188 244 250 234 213 239 234 195 251 192 222 266 102 154 195 245 259 75 173 200 184 196 210 200 191 187 185 191 197 197 195 195 196 197 203 205 208 210 211 211 210 208 206 208 208 208 206 205 204 202 204 204 202 206 206 209 209 209 207 207 204 206 207 210 209 210 204 193 204 202 203 194 186 185 195 194 200 202 199 202 207 206 206 206 193 209 219 193 186 255 279 269 268 259 295
111 208 237 111 240 264 220 231 231 191 237 160 175 271 243 184 234 234 168 117 158 205 202 212 222 223 201 191 188 190 199 190 192 200 201 202 204 204 207 208 208 209 213 211 210 205 209 209 209 208 206 203 206 206 205 207 207 208 210 212 212 207 205 208 209 209 212 213 211 204 206 201 199 203 189 188 190 200 204 202 205 211 202 199 200 200 201 209 209 199 182 199 227 241 251 260 235
146 137 304 298 271 268 233 201 180 194 228 152 165 257 242 211 227 180 152 150 148 193 215 209 216 224 218 199 198 200 196 191 200 204 200 201 204 204 208 205 208 209 210 211 210 209 206 206 206 209 208 208 205 209 209 208 209 210 210 211 210 206 207 208 211 211 210 212 212 213 209 204 204 204 197 186 191 199 209 215 215 214 206 193 187 188 199 209 207 202 203 204 211 237 243 252 269
193 130 232 269 276 237 108 183 167 209 131 167 181 253 253 231 232 196 163 172 171 205 217 209 208 211 215 210 207 208 205 203 206 203 201 203 204 205 208 207 206 208 208 208 210 212 205 202 204 209 206 210 204 210 211 213 212 213 212 214 210 207 208 210 210 207 205 210 210 212 211 207 205 207 198 196 195 204 217 220 222 217 189 184 190 193 207 206 220 219 219 228 235 243 251 256 252
150 173 209 172 228 229 129 156 177 215 137 201 183 251 255 252 250 135 136 198 202 222 222 212 205 209 208 211 215 215 214 209 216 213 207 207 207 206 204 205 204 206 210 208 210 209 208 206 203 209 203 207 210 211 211 214 215 215 215 214 215 208 209 211 213 211 205 203 203 205 202 207 206 205 200 200 200 200 218 225 223 214 179 194 206 197 213 219 220 225 224 233 242 244 249 252 250
183 232 146 199 202 242 283 161 210 249 118 194 206 245 257 246 242 153 139 189 226 241 235 219 210 210 209 215 216 223 220 214 215 216 211 210 214 212 207 205 203 205 206 207 208 209 212 209 199 211 211 209 212 210 211 213 216 217 218 214 217 213 210 213 215 214 216 210 205 203 195 200 203 203 201 199 207 205 218 224 221 201 187 205 205 207 212 224 226 226 226 214 245 269 264 265 270
163 190 226 210 218 225 232 127 180 190 216 203 216 240 250 266 281 166 180 192 211 236 246 237 219 218 213 212 218 223 223 220 218 213 212 210 212 211 209 207 206 205 207 209 209 209 210 210 207 206 211 213 213 212 210 212 214 217 219 221 211 215 217 217 216 213 213 217 211 205 195 193 197 199 198 198 207 206 206 209 210 181 186 204 209 209 220 224 227 218 236 203 217 240 267 271 270
161 181 209 216 228 245 268 254 103 205 179 245 220 229 247 251 254 255 209 181 208 236 239 242 231 224 220 215 219 226 228 226 228 215 212 211 212 210 210 207 208 208 208 210 211 212 211 213 211 203 204 211 212 212 211 211 212 216 221 221 219 219 221 222 217 211 212 216 219 217 211 199 196 196 194 195 205 202 205 208 202 178 185 199 205 208 212 210 217 218 229 202 203 227 261 263 273
183 190 200 208 201 213 232 240 116 244 220 226 236 239 245 247 253 250 254 172 216 241 239 243 246 232 226 224 225 223 228 236 235 221 220 214 210 207 206 207 207 208 210 212 214 213 212 212 212 211 206 209 209 208 208 208 208 211 215 218 221 218 216 217 215 213 210 214 217 216 214 212 198 198 196 196 203 206 206 203 201 178 189 193 196 207 213 210 213 220 227 223 210 208 219 229 225
197 198 208 220 223 231 132 261 110 138 269 250 246 248 251 258 249 250 250 177 215 244 249 234 236 231 222 224 225 225 226 238 147 205 221 218 212 208 208 208 210 209 212 213 215 215 213 211 208 213 211 207 206 203 204 200 199 207 215 216 218 216 216 215 215 212 210 212 211 213 215 216 216 210 201 195 201 202 207 200 190 183 190 203 209 212 213 217 214 214 222 218 233 230 232 215 223
191 187 206 217 213 243 234 205 109 148 227 265 236 265 264 261 257 255 257 252 239 235 243 245 238 232 227 225 233 227 233 242 210 232 220 214 209 207 205 207 206 207 210 211 214 214 213 212 212 213 212 207 206 204 202 202 203 204 203 209 214 219 215 212 216 214 212 211 211 212 214 217 217 214 214 209 200 200 200 198 192 192 190 202 215 225 220 225 208 203 207 226 215 238 254 246 199
189 205 200 224 219 237 251 247 195 163 226 264 272 269 268 264 262 251 244 249 254 242 238 250 253 245 234 228 238 245 241 248 228 235 222 209 204 203 203 208 210 212 210 211 213 211 211 212 215 215 213 209 206 206 204 207 207 209 209 213 210 219 216 211 218 221 212 211 209 211 213 216 216 214 213 215 203 201 202 197 198 192 191 199 203 214 219 217 207 207 209 231 244 210 243 211 219
192 194 190 215 184 185 236 186 150 175 224 298 307 292 276 271 262 253 247 240 246 244 238 242 245 252 252 239 232 237 245 249 236 226 223 205 196 202 207 212 211 207 211 213 211 211 209 212 213 213 214 212 211 207 204 208 208 210 215 219 218 218 216 211 213 213 215 215 224 216 214 216 215 214 214 214 216 201 202 202 199 195 197 200 209 209 205 214 209 212 207 219 240 245 219 226 200
207 205 208 208 176 215 233 129 133 144 220 268 286 281 271 259 259 255 245 217 229 240 248 241 241 238 249 256 250 234 244 241 242 235 221 201 194 205 204 206 202 207 212 211 205 203 207 209 210 211 212 209 208 206 204 208 206 209 213 217 223 223 222 212 215 221 222 220 216 211 210 207 210 209 212 217 220 217 211 206 201 200 199 200 209 217 213 209 207 206 205 209 207 232 251 240 203
201 219 216 214 209 209 180 12 300 273 256 157 249 297 267 231 240 251 264 212 203 218 228 237 240 231 225 240 239 235 231 239 242 245 234 201 203 207 210 202 200 210 213 214 207 206 207 209 208 209 210 209 207 204 204 203 205 205 205 208 210 213 219 214 216 219 220 219 218 215 209 200 200 202 212 213 214 200 220 218 204 198 215 217 216 213 217 207 207 212 208 215 219 220 248 242 228
195 207 200 217 207 206 167 164 146 253 254 107 256 239 273 349 281 256 275 278 263 241 214 232 232 231 223 224 230 235 231 237 232 242 241 220 211 199 203 206 209 212 218 209 205 210 211 212 209 205 205 205 204 202 195 201 209 208 208 209 208 209 214 219 217 222 227 227 219 218 205 194 199 203 206 209 207 200 209 213 216 205 195 198 202 206 210 212 220 214 208 206 226 225 211 243 246
217 138 173 193 188 185 198 202 216 251 11 256 183 251 282 280 256 254 246 261 259 253 248 235 228 223 224 223 227 230 234 230 228 229 230 224 217 200 207 208 206 211 212 198 208 211 211 212 209 208 208 209 206 200 197 202 209 206 211 214 215 217 217 218 211 218 223 222 213 212 211 198 198 203 204 206 210 211 205 214 214 224 219 199 186 199 210 207 209 207 207 206 210 200 197 222 237
217 141 149 168 181 182 155 200 189 352 356 268 185 131 287 258 260 204 224 247 247 245 243 241 234 230 224 223 225 226 230 231 225 225 227 214 213 213 215 210 208 209 199 199 204 207 208 211 212 212 213 210 208 198 198 206 213 208 212 214 218 221 221 222 218 216 220 220 221 209 206 203 201 203 208 213 212 213 205 214 215 213 216 224 204 207 215 207 200 206 192 195 199 211 215 222 234
29 119 92 90 87 69 148 188 249 252 280 257 221 166 250 274 212 206 199 231 251 247 239 240 236 228 218 223 223 225 228 232 230 230 233 225 216 218 214 221 208 209 205 204 207 205 206 206 210 212 216 213 210 206 201 205 212 211 212 214 215 215 214 217 217 219 220 217 220 214 210 205 199 199 203 207 210 206 208 210 215 214 214 211 201 207 209 214 210 205 190 191 193 199 205 209 227
128 129 114 99 58 73 54 48 332 288 251 258 193 169 228 291 228 202 177 216 220 247 245 241 236 232 223 220 218 216 221 225 232 228 232 233 224 224 213 220 225 214 182 203 207 205 202 202 208 211 216 214 210 208 202 205 207 214 216 214 212 211 207 209 213 218 217 216 216 213 211 209 205 201 201 205 205 204 210 209 209 214 214 209 198 204 208 211 215 220 200 183 180 195 197 202 210
144 145 133 117 71 73 126 35 149 228 252 92 166 175 182 246 209 198 201 198 208 232 247 245 235 233 233 224 219 223 220 220 224 226 236 229 215 220 215 228 227 222 200 205 211 206 203 202 202 210 213 213 210 206 201 207 209 216 220 218 213 212 206 205 211 213 211 213 213 213 209 207 203 199 198 196 202 204 204 205 203 209 212 208 205 207 210 212 210 205 194 195 201 201 203 186 211
181 143 150 147 162 141 205 174 207 217 244 114 359 109 205 238 245 116 246 253 245 207 237 248 245 240 236 234 229 211 223 243 236 231 232 222 215 214 213 229 229 214 211 212 211 207 208 207 203 205 211 207 208 201 203 208 211 217 219 219 216 211 212 208 207 213 212 213 211 211 205 206 201 201 198 197 200 201 205 207 202 201 204 209 210 206 206 197 199 199 206 206 207 202 206 207 208
169 166 165 157 148 174 211 196 275 288 173 168 103 108 252 274 286 217 211 230 243 235 229 244 253 256 263 265 313 337 230 222 233 235 240 236 219 216 217 223 220 218 215 209 206 203 206 208 207 208 212 204 203 202 204 210 215 217 219 218 217 211 213 210 209 212 211 211 212 211 210 206 201 198 195 197 202 203 202 201 199 202 204 207 206 209 211 203 192 194 197 197 196 198 196 197 203
177 163 180 181 164 174 190 188 198 208 238 118 229 131 241 211 188 29 271 307 330 281 261 264 257 252 255 277 290 275 267 248 215 232 241 245 239 230 236 228 222 217 209 205 202 202 203 208 207 209 209 205 200 202 204 213 217 219 220 220 217 217 216 213 215 215 213 211 210 212 214 210 210 205 198 202 205 205 202 202 200 202 205 210 205 200 199 196 194 193 192 194 196 193 178 171 176
193 169 12 193 206 89 228 35 246 163 175 168 178 223 254 222 359 300 240 251 270 257 254 245 251 234 228 269 259 253 250 255 237 227 241 239 230 222 227 228 224 216 212 208 205 199 200 207 207 209 208 205 201 200 206 213 218 219 220 219 219 218 215 216 218 212 213 212 210 210 213 212 213 212 211 207 207 204 199 200 196 200 203 203 201 198 183 177 182 182 183 183 184 168 161 160 154
171 163 203 193 39 91 99 78 38 33 356 247 170 269 261 285 270 254 268 257 247 230 226 235 248 226 211 248 251 246 235 231 232 230 238 242 224 219 217 219 215 210 206 207 207 203 204 202 203 208 209 208 203 200 205 212 218 219 220 220 219 218 215 214 214 212 212 212 210 210 213 214 213 209 206 198 201 198 194 195 196 195 195 191 189 187 171 174 177 182 180 168 162 157 154 149 145
132 198 186 104 52 20 205 220 107 213 229 246 156 237 261 14 288 146 216 231 238 245 241 225 236 231 233 240 243 243 240 230 224 228 236 238 232 225 213 213 215 212 208 206 208 202 204 206 204 206 205 209 207 200 202 208 212 217 219 220 220 218 219 219 218 216 212 210 212 212 211 209 208 205 196 189 193 192 190 190 192 189 186 179 183 182 178 173 175 179 174 165 155 153 147 139 146
179 183 133 151 176 208 205 198 200 188 219 261 211 238 260 224 241 182 137 208 237 238 246 257 242 227 232 239 244 248 252 255 238 232 232 231 224 226 217 222 224 220 213 204 193 189 197 204 205 207 208 208 205 201 202 207 212 213 214 215 217 217 216 217 216 212 204 203 208 207 206 204 197 195 197 189 187 186 188 187 186 181 172 176 171 168 161 161 162 156 144 145 147 150 149 139 128
338 97 176 218 281 214 168 200 305 168 230 233 255 130 256 184 226 211 194 179 216 210 221 238 250 246 233 233 238 243 245 242 258 263 261 264 257 230 195 231 235 223 206 201 193 181 193 195 195 205 209 201 200 199 199 211 212 209 200 209 208 209 210 210 208 202 202 208 199 197 199 200 204 198 196 184 184 184 179 177 175 168 168 167 168 161 154 144 143 138 140 140 143 142 142 136 124
159 179 187 183 208 345 300 51 197 200 212 214 264 256 243 204 167 174 216 225 235 221 223 228 237 250 249 237 247 253 268 295 291 292 290 286 270 252 235 243 251 246 229 203 201 201 184 182 197 197 197 200 202 201 206 212 207 210 207 207 207 205 206 203 196 200 206 201 194 194 201 201 191 193 182 181 182 178 173 171 169 169 169 160 154 149 144 140 137 135 132 138 137 133 121 99 124
185 185 190 185 169 159 172 213 166 207 201 217 187 251 272 151 154 193 214 220 235 241 247 253 253 263 335 291 264 280 284 277 275 276 285 277 253 198 192 213 223 224 222 214 211 205 190 193 190 182 194 199 195 195 205 206 206 206 206 206 203 197 196 186 194 198 197 193 196 195 188 171 186 185 177 176 174 167 164 164 161 153 145 150 142 128 137 136 137 131 123 124 134 130 124 121 125